NAYIF-1 (EO-88) (42017 NORAD) Tracking and Keplerian Element Data

This shows tracking and keplerian element data for the satellite.

Feedback or suggestion? Click here.




ElementValue
Catalog42017
NameNAYIF-1 (EO-88)
Epoch Orbit12079
Epoch Day109.80730254
Epoch Year2019
RAAN177.5086
Inclination97.4079
Eccentricity0.0006975
Argument of Perigee34.7838
Mean Anonmoly325.3855
Mean Motion15.25344446
Decay Rate1.444E-05
L11 42017U 17008BX 19109.80730254 .00001444 00000-0 60132-4 0 9998
L22 42017 97.4079 177.5086 0006975 34.7838 325.3855 15.25344446120794

Live tracking and technical data element details for NAYIF-1 (EO-88) (NORAD 42017). NAYIF-1 (EO-88) can be tracked NOW for your location showing map with azimuth and elevation plus other details from your city location.

Track the satellite on the map from your city or location and see movement details for azimuth, elevation, latitude, longitude, range, height, and movement on the map or in text.







IsCatalogInMostPopularTable: catalog: 42017, numindb: 237
Update: records affected: 1



GetName: 42017 NAYIF-1 (EO-88)

Hit Count: updated at: Sat, 20 Apr 2019 20:37:50 GMT